Preview of NWS' New Version of Forecast
This preview is not operational and should not be used for support decisions.

Regional Weather Roundup (RWR)

Issued by National Weather Service (NWS)

                            
000
ASUS42 KTBW 260516
RWRFL 
FLORIDA REGIONAL WEATHER ROUNDUP
NATIONAL WEATHER SERVICE TAMPA BAY RUSKIN FL
100 AM EDT TUE MAR 26 2019

NOTE: "FAIR" INDICATES FEW OR NO CLOUDS BELOW 12,000 FEET WITH NO
SIGNIFICANT WEATHER AND/OR OBSTRUCTIONS TO VISIBILITY.

FLZ001>010-012>015-112-114-115-260600-
PANHANDLE FLORIDA
  
CITY           SKY/WX    TMP DP  RH WIND       PRES   REMARKS
PENSACOLA      FAIR      65  64  97 N8        30.07R                  
PENSACOLA NAS  FAIR      66  64  93 N6        30.06R                  
MILTON NAS     MOCLDY    62  59  90 NW3       30.07S                  
CRESTVIEW      FAIR      59  57  93 CALM      30.07S                  
DUKE FIELD     FAIR      61  59  94 NW5       30.05F                  
VALPARAISO     FAIR      64  62  91 NW7       30.05R                  
MARY ESTHER    LGT RAIN  65  61  86 NW6       30.05                   
PANAMA CITY    FAIR      64  62  93 W5        30.04S                  
TYNDALL AFB    FAIR      66  64  91 W10       30.04S                  
APALACHICOLA   FAIR      65  60  84 W8        30.04S                  

STATION/POSITION SKY/WX   TEMP    WIND        PRES    WAVE   SWELL
                          AIR SEA DIR/SP/G            HT/PER HT/PER
                          (F)     (DEG/KT/KT) (MB)    (FT/S) (FT/S)
30.1N   87.6W                                 1018.2R   2/ 4
29.2N   88.2W                     260/ 14/ 16 1018.7F   3/ 4
PANAMA CITY BEAC           67 67  270/  7/  9 1017.8R
TOWER C                    67     260/ 13/ 14 1017.7F

$$
FLZ011-016>038-118-127-128-134-139-239-260600-
NORTH FLORIDA
  
CITY           SKY/WX    TMP DP  RH WIND       PRES   REMARKS
MARIANNA       LGT RAIN  64  61  90 NW7       30.04R                  
TALLAHASSEE    FAIR      59  58  96 SW6       30.03S                  
PERRY          FAIR      63  62  97 W5        30.04S                  
LIVE OAK       CLEAR     61  61 100 CALM      30.03R                  
CROSS CITY     FAIR      62  58  86 SW6       30.04F                  
LAKE CITY      FAIR      59  55  88 W6        30.04R                  
GAINESVILLE    FAIR      64  56  75 W8        30.06S                  
WILLISTON        N/A    N/A N/A N/A MISG        N/A                   
PALATKA        FAIR     N/A N/A N/A W6        30.03S                  
MAYPORT NAS    MOCLDY    67  56  67 W9        30.01S                  
JACKSONVILLE   FAIR      64  54  69 SW9       30.00S                  
JAX NAS        FAIR      67  54  63 SW12      30.02S                  
JAX CECIL      FAIR     N/A N/A N/A SW6       30.02S                  
FERNANDINA BEA FAIR      65  55  69 W10       30.00S                  
ST AUGUSTINE   FAIR      66  58  75 W6        30.03S                  
PALM COAST     FAIR      65  58  78 W5        30.03R                  

STATION/POSITION SKY/WX   TEMP    WIND        PRES    WAVE   SWELL
                          AIR SEA DIR/SP/G            HT/PER HT/PER
                          (F)     (DEG/KT/KT) (MB)    (FT/S) (FT/S)
SHELL POINT      NOT AVBL
KEATON BEACH               67     260/ 10/ 12 1017.4F
CEDAR KEY                  67     270/  5/  7 1017.4F
FERNANDINA                 67 65  230/  5/  9 1016.4R
30.7N   81.3W                 65                N/A     2/ 5
MAYPORT                    67 64  250/ 10/ 12 1016.1S
31.4N   80.9W              66 63  230/ 12/ 14 1014.6F   2/ 4
ST AUGUSTINE               66 63  240/  4/  6 1016.9R

$$
FLZ040-043>046-052-053-057-058-063-144-260600-
INTERIOR CENTRAL FLORIDA
  
CITY           SKY/WX    TMP DP  RH WIND       PRES   REMARKS
OCALA          FAIR      59  57  93 CALM      30.05                   
LEESBURG       FAIR      65  62  90 W6        30.05F                  
SANFORD        FAIR      65  61  87 W6        30.04S                  
ORLANDO EXEC   FAIR      68  62  81 W6        30.05S                  
ORLANDO INTL   FAIR      67  61  81 SW3       30.05S                  
KISSIMMEE      FAIR      66  62  87 W6        30.06S                  
WINTER HAVEN   FAIR      67  63  87 W6        30.06F                  
BARTOW         FAIR      63  59  88 CALM      30.05S                  
SEBRING        FAIR      67  58  73 NW5       30.06S                  
OKEECHOBEE     FAIR      64  63  94 CALM      30.04F                  

$$
FLZ041-047-054-059-064-141-147-260600-
EAST CENTRAL FLORIDA
  
CITY           SKY/WX    TMP DP  RH WIND       PRES   REMARKS
DAYTONA BEACH  FAIR      64  61  90 SW5       30.03S                  
DELAND         FAIR      66  59  77 W3        30.03F                  
JFK SPACE CTR  FAIR     N/A N/A N/A CALM        N/A                   
CAPE CANAVERAL FAIR      66  62  88 CALM      30.02F                  
PATRICK AFB    FAIR      69  69  99 SW8       30.03F                  
MELBOURNE      FAIR      68  64  87 SW5       30.04F                  
VERO BEACH     FAIR      69  66  90 SW6       30.04S                  
FT PIERCE      MOCLDY    70  65  84 SW3       30.04S                  
STUART         FAIR      70  64  83 CALM      30.05F                  

STATION/POSITION SKY/WX   TEMP    WIND        PRES    WAVE   SWELL
                          AIR SEA DIR/SP/G            HT/PER HT/PER
                          (F)     (DEG/KT/KT) (MB)    (FT/S) (FT/S)
28.5N   80.2W              73     230/ 14/ 16 1017.3S   3/10   2/10
28.9N   78.5W              74 74  180/ 16/ 17 1016.8F   3/ 9   2/ 9
TRIDENT PIER               69 70  220/  5/  6 1018.1F
28.4N   80.5W                 69                N/A     2/10
27.5N   80.2W                 72                N/A     2/11

$$
FLZ050-056-061-142-242-148-248-149-249-151-251-155-255-
160-260-260600-
WEST CENTRAL FLORIDA
  
CITY           SKY/WX    TMP DP  RH WIND       PRES   REMARKS
CRYSTAL RIVER  FAIR      59  55  88 CALM      30.05S                  
INVERNESS      FAIR      59  59 100 CALM      30.05F                  
BROOKSVILLE    CLOUDY    64  63  96 CALM      30.06S                  
CLEARWATER AIR FAIR      66  66 100 CALM      30.05S                  
ST PETE CLEARW FAIR      67  65  93 W3        30.05F                  
TAMPA INTL     FAIR      70  66  87 W5        30.05F                  
TAMPA EXEC     FAIR      61  59  94 CALM      30.06F FOG              
PLANT CITY     FAIR      63  61  94 CALM      30.07F                  
MACDILL AFB    FAIR      67  64  91 CALM      30.05S                  
PETER O KNIGHT FAIR     N/A N/A N/A CALM      30.05F                  
ST PETERSBURG  FAIR      71  66  84 W6        30.03F                  
SARASOTA       FAIR      66  62  87 CALM      30.04F                  
VENICE         MOCLDY    72  66  83 NW5       30.06F                  

STATION/POSITION SKY/WX   TEMP    WIND        PRES    WAVE   SWELL
                          AIR SEA DIR/SP/G            HT/PER HT/PER
                          (F)     (DEG/KT/KT) (MB)    (FT/S) (FT/S)
27.3N   84.2W                 74                N/A     2/ 5
CLEARWATER BEACH           69 72  250/  6/  7 1017.6F
MIDDLE TAMPA BAY           70     300/  5/  5 1017.8S
VENICE                     71 72  270/  2/  3 1017.5F

$$
FLZ066-069-070-075>078-162-262-165-265-260600-
SOUTHWEST FLORIDA AND KEYS
  
CITY           SKY/WX    TMP DP  RH WIND       PRES   REMARKS
PUNTA GORDA    FAIR      68  62  81 NW5       30.07F                  
FT MYERS       MOCLDY    69  64  84 NW6       30.05S                  
SOUTHWEST INTL MOCLDY    67  63  87 CALM      30.06S                  
NAPLES         FAIR      70  68  93 N3        30.05S                  
MARCO ISLAND   FAIR      70  67  90 N5        30.06S                  
IMMOKALEE      FAIR      66  61  82 NW5       30.04S                  
MARATHON       FAIR      76  70  82 N3        30.05S                  
KEY WEST NAS   FAIR      75  69  81 CALM      30.06F                  
KEY WEST INTL  FAIR      74  71  91 CALM      30.07S                  

STATION/POSITION SKY/WX   TEMP    WIND        PRES    WAVE   SWELL
                          AIR SEA DIR/SP/G            HT/PER HT/PER
                          (F)     (DEG/KT/KT) (MB)    (FT/S) (FT/S)
NAPLES                     73 76  350/  7/  7 1017.7R
DRY TORTUGAS               76      CALM  /  1 1018.0F
SAND KEY                   76                 1018.0F
SOMBRERO KEY               76                 1017.4R
MOLASSES REEF              76     360/  2       N/A

$$
FLZ067-068-071>074-168-172>174-260600-
SOUTHEAST FLORIDA 
  
CITY           SKY/WX    TMP DP  RH WIND       PRES   REMARKS
W PALM BEACH   FAIR      71  66  84 S3        30.04S                  
FT LAUDER-EXEC FAIR      72  67  84 CALM      30.04S                  
FT LAUDERDALE  FAIR      74  68  81 S3        30.04S                  
POMPANO BEACH  FAIR      75  67  76 CALM      30.04S                  
PEMBROKE PINES FAIR      72  67  84 S3        30.06S                  
OPA LOCKA      FAIR      72  67  84 S5        30.05F                  
MIAMI          FAIR      73  68  84 S3        30.05S                  
WEST KENDALL   FAIR      69  67  93 W6        30.05S                  
HOMESTEAD      FAIR      68  67  96 SW3       30.04F                  

STATION/POSITION SKY/WX   TEMP    WIND        PRES    WAVE   SWELL
                          AIR SEA DIR/SP/G            HT/PER HT/PER
                          (F)     (DEG/KT/KT) (MB)    (FT/S) (FT/S)
VIRGINIA KEY               75 76  190/  2/  2 1016.7F
LAKE WORTH                 75 77  180/  9/ 11 1018.3S
FOWEY ROCKS                75 78  160/  7/  7 1017.9F
SETTLEMENT POINT           73     140/  5/  6 1017.3F

$$